#timestamp,LO_Frequency,Hit,StdDev 
1623517215.9,286047001.0,N
1623517235.7,286046998.4,N
1623517255.6,286046998.6,N
1623517275.4,286046998.1,N
1623517295.3,286047000.4,N
1623517315.1,286046998.2,N
1623517316.0,286046998.2,N
1623517335.8,286046998.3,N
1623517355.7,286047000.8,N
1623517375.5,286047000.9,N
1623517395.3,286047000.9,N
1623517415.2,286047000.3,N
1623517435.0,286047000.9,N
1623517435.9,286047000.9,N
1623517455.8,286046999.8,N
1623517475.6,286047002.7,N
1623517495.4,286047000.4,N
1623517515.3,286047000.2,N
1623517535.1,286047000.5,N
1623517555.8,286047000.4,N
1623517575.7,286047000.4,N
1623517595.5,286047001.1,N
1623517615.3,286047000.4,N
1623517635.2,286047000.5,N
1623517655.0,286047000.4,N
1623517655.9,286047000.4,N
1623517675.8,286047000.5,N
1623517695.6,286047002.3,N
1623517715.4,286047002.5,N
1623517735.3,286047002.7,N
1623517755.1,286047000.7,N
1623517775.9,286047001.0,N
1623517795.7,286047001.2,N
1623517815.5,286047000.8,N
1623517835.4,286046999.9,N
1623517855.2,286046999.9,N
1623517875.0,286047002.8,N
1623517875.9,286047002.8,N
1623517895.8,286047001.6,N
1623517915.6,286047002.5,N
1623517935.5,286047002.4,N
1623517955.3,286047002.4,N
1623517975.1,286047002.7,N
1623517995.9,286047000.2,N
1623518015.7,286046999.9,N
1623518035.5,286047000.3,N
1623518055.4,286047000.5,N
1623518075.2,286046999.9,N
1623518095.1,286046999.7,N
1623518096.0,286046999.7,N
1623518115.8,286047002.6,N
1623518135.6,286046999.8,N
1623518155.5,286047000.0,N
1623518175.3,286046999.7,N
1623518195.1,286047002.4,N
1623518215.9,286047002.6,N
1623518235.7,286047002.7,N
1623518255.6,286047002.6,N
1623518275.4,286047002.0,N
1623518295.2,286047002.4,N
1623518315.1,286047002.5,N
1623518316.0,286047002.5,N
1623518335.8,286047002.1,N
1623518355.6,286047001.4,N
1623518375.5,286047002.7,N
1623518395.3,286047002.0,N
1623518415.1,286046999.8,N
1623518435.9,286047000.6,N
1623518455.7,286046998.6,N
1623518475.6,286047000.6,N
1623518495.4,286047000.7,N
1623518515.2,286046999.9,N
1623518535.1,286047002.8,N
1623518536.0,286047002.8,N
1623518555.8,286047002.4,N
1623518575.7,286047002.2,N
1623518595.5,286047001.9,N
1623518615.3,286047002.6,N
1623518635.2,286047002.8,N
1623518655.9,286046999.7,N
1623518675.7,286047002.8,N
1623518695.6,286047002.4,N
1623518715.4,286047002.1,N
1623518735.2,286047001.9,N
1623518755.1,286047002.3,N
1623518756.0,286047002.3,N
1623518775.8,286047002.6,N
1623518795.7,286047002.1,N
1623518815.5,286047002.7,N
1623518835.3,286047002.3,N
1623518855.2,286047002.4,N
1623518875.0,286047002.5,N
1623518875.9,286047002.5,N
1623518895.8,286047002.3,N
1623518915.6,286047001.5,N
1623518935.4,286047002.2,N
1623518955.3,286047001.8,N
1623518975.1,286047001.5,N
1623518995.8,286047001.9,N
1623519015.7,286047002.5,Y
1623519035.5,286047000.7,P
1623519055.4,286047001.2,N
1623519075.2,286047001.0,N
1623519095.0,286047000.0,N
1623519095.9,286047000.0,N
1623519115.8,286046998.6,N
1623519135.6,286047000.8,N
1623519155.5,286047001.1,N
1623519175.3,286047000.8,N
1623519195.1,286046998.9,N
1623519215.9,286046999.0,N
1623519235.7,286046999.6,N
1623519255.6,286046999.3,N
1623519275.4,286046998.9,N
1623519295.2,286046998.9,N
1623519315.1,286046999.6,N
1623519316.0,286046999.6,N
1623519335.8,286046996.8,Y
1623519355.7,286046999.0,P
1623519375.5,286046998.1,P
1623519395.3,286046998.4,N
1623519415.2,286046998.2,N
1623519435.0,286046998.2,N
1623519435.9,286046998.2,N
1623519455.7,286047001.0,N
1623519475.6,286046998.5,N
1623519495.4,286047001.1,N
1623519515.3,286046998.4,N
1623519535.1,286046999.0,N
1623519536.0,286046999.0,N
1623519555.8,286046998.5,N
1623519575.7,286046999.4,N
1623519595.5,286046998.8,N
1623519615.4,286046998.3,N
1623519635.2,286046998.4,N
1623519655.0,286046999.4,N
1623519655.9,286046999.4,N
1623519675.8,286046997.2,Y
1623519695.6,286046999.4,P
1623519715.4,286046998.8,P
1623519735.3,286047001.1,P
1623519755.1,286047000.6,N
1623519775.9,286047000.5,N
1623519795.7,286047001.0,N
1623519815.5,286046999.4,N
1623519835.4,286046999.0,N
1623519855.2,286046998.9,N
1623519875.0,286047001.2,N
1623519875.9,286047001.2,N
1623519895.8,286046998.3,N
1623519915.6,286047000.5,N
1623519935.5,286047000.6,N
1623519955.3,286047000.7,N
1623519975.1,286047001.1,N
1623519995.9,286046998.5,N
1623520015.7,286046999.0,N
1623520035.5,286046999.2,N
1623520055.4,286046999.1,N
1623520075.2,286046996.9,Y
1623520095.1,286046998.3,P
1623520096.0,286046998.3,N
1623520115.8,286046998.8,N
1623520135.6,286046998.2,N
1623520155.5,286046998.1,Y
1623520175.3,286047002.7,P
1623520195.1,286047002.0,N
1623520215.9,286047002.0,N
1623520235.7,286047002.4,N
1623520255.6,286047002.4,N
1623520275.4,286047002.2,N
1623520295.2,286047002.5,N
1623520315.1,286047000.9,N
1623520316.0,286047000.9,N
1623520335.8,286046999.8,N
1623520355.6,286047000.2,N
1623520375.5,286047002.4,N
1623520395.3,286047001.6,N
1623520415.2,286047001.7,N
1623520435.9,286047002.2,N
1623520455.7,286047002.7,N
1623520475.6,286047000.1,N
1623520495.4,286047000.0,N
1623520515.2,286046999.7,N
1623520535.1,286046999.9,N
1623520536.0,286046999.9,N
1623520555.8,286047002.1,N
1623520575.7,286047002.0,N
1623520595.5,286047004.4,Y
1623520615.3,286046999.8,P
1623520635.2,286046999.8,N
1623520655.0,286047002.1,N
1623520655.9,286047002.1,N
1623520675.7,286047002.0,N
1623520695.6,286047002.1,N
1623520715.4,286047002.4,N
1623520735.3,286047001.3,N
1623520755.1,286047001.3,N
1623520756.0,286047001.3,N
1623520775.8,286047002.7,Y
1623520795.7,286047000.8,P
